Benson, MN

3:44 AM CDT on April 24, 2017 (GMT -0500)
Benson Municipal

Weather History for KBBB - February, 2013

Change the Weather History Date:

Monday, February 11, 2013

  Actual Average Record
Temperature  
Mean Temperature 17 °F -  
Max Temperature 26 °F 22 °F 55 °F (2005)
Min Temperature 8 °F 4 °F -27 °F (1981)
Degree Days  
Heating Degree Days 48    
Moisture  
Dew Point 16 °F    
Average Humidity 87    
Maximum Humidity 100    
Minimum Humidity 79    
Precipitation  
Precipitation 0.00 in - - ()
Sea Level Pressure  
Sea Level Pressure 29.86 in    
Wind  
Wind Speed 22 mph (NNW)    
Max Wind Speed 29 mph    
Max Gust Speed 38 mph    
Visibility 6 miles    
Events Snow    
Averages and records for this station are not official NWS values.
T = Trace of Precipitation, MM = Missing Value Source: NWS Daily Summary

Daily Weather History Graph

Daily Weather History Graph

Search for Another Location

Airport or City:

Trip Planner

Search our weather history database for the weather conditions in past years. The results will help you decide how hot, cold, wet, or windy it might be!

Date:

Astronomy

Feb. 11, 2013 Rise Set
Actual Time 7:29 AM CST 5:44 PM CST
Civil Twilight 6:58 AM CST 6:15 PM CST
Nautical Twilight 6:24 AM CST 6:50 PM CST
Astronomical Twilight 5:50 AM CST 7:24 PM CST
Moon 7:47 AM CST (2/11) 7:51 PM CST (2/11)
Length of Visible Light 11h 16m
Length of Day
10h 15m
Waxing Crescent, 3% of the Moon is Illuminated
Feb 11
Waxing Crescent
Feb 17
First Quarter
Feb 25
Full
Mar 4
Last Quarter
Mar 11
New

Hourly Weather History & Observations

Time (CST) Temp. Windchill Dew Point Humidity Pressure Visibility Wind Dir Wind Speed Gust Speed Precip Events Conditions
12:13 AM 26.6 °F 12.7 °F 23.0 °F 86% 29.51 in 3.0 mi North 20.7 mph 28.8 mph N/A Snow Light Snow
12:32 AM 24.8 °F 8.7 °F 23.0 °F 93% 29.52 in 2.5 mi North 26.5 mph 31.1 mph N/A Snow Light Snow
12:52 AM 24.8 °F 8.4 °F 23.0 °F 93% 29.54 in 3.0 mi North 27.6 mph 33.4 mph N/A Snow Light Snow
1:13 AM 24.8 °F 8.7 °F 21.2 °F 86% 29.56 in 4.0 mi North 26.5 mph 31.1 mph N/A Snow Light Snow
1:32 AM 24.8 °F 9.3 °F 21.2 °F 86% 29.57 in 4.0 mi North 24.2 mph 31.1 mph N/A Snow Light Snow
1:53 AM 24.8 °F 8.7 °F 21.2 °F 86% 29.58 in 4.0 mi North 26.5 mph 33.4 mph N/A Snow Light Snow
2:13 AM 24.8 °F 9.0 °F 21.2 °F 86% 29.59 in 3.0 mi North 25.3 mph 34.5 mph N/A Snow Light Snow
2:32 AM 24.8 °F 8.7 °F 21.2 °F 86% 29.61 in 4.0 mi North 26.5 mph - N/A Snow Light Snow
2:53 AM 24.8 °F 8.4 °F 21.2 °F 86% 29.62 in 2.5 mi North 27.6 mph 34.5 mph N/A Snow Light Snow
3:13 AM 24.8 °F 8.4 °F 21.2 °F 86% 29.63 in 2.5 mi North 27.6 mph 33.4 mph N/A Snow Light Snow
3:32 AM 24.8 °F 8.4 °F 21.2 °F 86% 29.64 in 1.5 mi North 27.6 mph 34.5 mph N/A Snow Light Snow
3:53 AM 23.0 °F 6.0 °F 21.2 °F 93% 29.66 in 1.8 mi North 27.6 mph 34.5 mph N/A Snow Light Snow
4:13 AM 23.0 °F 5.7 °F 21.2 °F 93% 29.67 in 1.8 mi North 28.8 mph 34.5 mph N/A Snow Light Snow
4:32 AM 21.2 °F 3.9 °F 21.2 °F 100% 29.68 in 1.8 mi North 26.5 mph 38.0 mph N/A Snow Light Snow
4:53 AM 21.2 °F 3.5 °F 19.4 °F 93% 29.69 in 2.0 mi North 27.6 mph 32.2 mph N/A Snow Light Snow
5:13 AM 21.2 °F 3.5 °F 19.4 °F 93% 29.71 in 2.0 mi North 27.6 mph 33.4 mph N/A Snow Light Snow
5:32 AM 21.2 °F 3.9 °F 19.4 °F 93% 29.72 in 2.5 mi North 26.5 mph 35.7 mph N/A Snow Light Snow
5:53 AM 21.2 °F 3.9 °F 19.4 °F 93% 29.73 in 3.0 mi North 26.5 mph 33.4 mph N/A Snow Light Snow
6:12 AM 21.2 °F 4.9 °F 19.4 °F 93% 29.75 in 2.5 mi North 23.0 mph 31.1 mph N/A Snow Light Snow
6:33 AM 21.2 °F 4.5 °F 19.4 °F 93% 29.76 in 2.5 mi North 24.2 mph 29.9 mph N/A Snow Light Snow
6:53 AM 21.2 °F 4.2 °F 19.4 °F 93% 29.77 in 3.0 mi North 25.3 mph 31.1 mph N/A Snow Light Snow
7:12 AM 21.2 °F 5.2 °F 17.6 °F 86% 29.78 in 5.0 mi North 21.9 mph 29.9 mph N/A Snow Light Snow
7:33 AM 21.2 °F 4.5 °F 19.4 °F 93% 29.80 in 5.0 mi North 24.2 mph 32.2 mph N/A Snow Light Snow
7:53 AM 21.2 °F 4.5 °F 19.4 °F 93% 29.81 in 2.5 mi NNW 24.2 mph 31.1 mph N/A Snow Light Snow
8:12 AM 21.2 °F 3.5 °F 19.4 °F 93% 29.82 in 2.0 mi NNW 27.6 mph 33.4 mph N/A Snow Light Snow
8:33 AM 21.2 °F 4.2 °F 17.6 °F 86% 29.83 in 3.0 mi NNW 25.3 mph 32.2 mph N/A Snow Light Snow
8:52 AM 21.2 °F 3.9 °F 17.6 °F 86% 29.85 in 4.0 mi North 26.5 mph - N/A Snow Light Snow
9:12 AM 21.2 °F 4.2 °F 17.6 °F 86% 29.85 in 3.0 mi North 25.3 mph 32.2 mph N/A   Overcast
9:33 AM 21.2 °F 3.9 °F 17.6 °F 86% 29.86 in 2.5 mi North 26.5 mph 32.2 mph N/A   Overcast
9:52 AM 21.2 °F 4.5 °F 17.6 °F 86% 29.87 in 2.5 mi North 24.2 mph 33.4 mph N/A   Overcast
10:12 AM 21.2 °F 4.5 °F 17.6 °F 86% 29.88 in 2.5 mi North 24.2 mph 38.0 mph N/A Snow Light Snow
10:33 AM 21.2 °F 4.2 °F 17.6 °F 86% 29.89 in 2.5 mi North 25.3 mph 31.1 mph N/A   Overcast
10:52 AM 21.2 °F 4.5 °F 19.4 °F 93% 29.91 in 4.0 mi North 24.2 mph 28.8 mph N/A Snow Light Snow
11:13 AM 21.2 °F 4.2 °F 17.6 °F 86% 29.91 in 4.0 mi NNW 25.3 mph 32.2 mph N/A Snow Light Snow
11:33 AM 21.2 °F 4.2 °F 17.6 °F 86% 29.92 in 3.0 mi North 25.3 mph 31.1 mph N/A Snow Light Snow
11:52 AM 21.2 °F 4.5 °F 17.6 °F 86% 29.94 in 2.5 mi NNW 24.2 mph 34.5 mph N/A Snow Light Snow
12:13 PM 21.2 °F 5.2 °F 17.6 °F 86% 29.94 in 4.0 mi NNW 21.9 mph 28.8 mph N/A Snow Light Snow
12:33 PM 21.2 °F 3.9 °F 17.6 °F 86% 29.94 in 2.0 mi NNW 26.5 mph 33.4 mph N/A Snow Light Snow
12:52 PM 21.2 °F 5.2 °F 17.6 °F 86% 29.95 in 5.0 mi NNW 21.9 mph 32.2 mph N/A Snow Light Snow
1:13 PM 21.2 °F 4.5 °F 15.8 °F 80% 29.95 in 4.0 mi NNW 24.2 mph 33.4 mph N/A Snow Light Snow
1:33 PM 21.2 °F 5.2 °F 15.8 °F 80% 29.95 in 4.0 mi NNW 21.9 mph 33.4 mph N/A Snow Light Snow
1:52 PM 21.2 °F 6.0 °F 15.8 °F 80% 29.96 in 7.0 mi NNW 19.6 mph 28.8 mph N/A Snow Light Snow
2:13 PM 21.2 °F 6.0 °F 15.8 °F 80% 29.96 in 5.0 mi North 19.6 mph 28.8 mph N/A Snow Light Snow
2:33 PM 21.2 °F 6.0 °F 15.8 °F 80% 29.96 in 7.0 mi North 19.6 mph 25.3 mph N/A Snow Light Snow
2:52 PM 21.2 °F 5.6 °F 15.8 °F 80% 29.96 in 7.0 mi North 20.7 mph 27.6 mph N/A Snow Light Snow
3:13 PM 21.2 °F 6.4 °F 15.8 °F 80% 29.97 in 10.0 mi NNW 18.4 mph 26.5 mph N/A Snow Light Snow
3:32 PM 21.2 °F 6.8 °F 15.8 °F 80% 29.97 in 10.0 mi North 17.3 mph - N/A Snow Light Snow
3:52 PM 21.2 °F 5.6 °F 15.8 °F 80% 29.98 in 10.0 mi NNW 20.7 mph 25.3 mph N/A Snow Light Snow
4:52 PM 21.2 °F 6.4 °F 15.8 °F 80% 29.99 in 10.0 mi NNW 18.4 mph - N/A Snow Light Snow
5:13 PM 21.2 °F 8.3 °F 15.8 °F 80% 29.99 in 10.0 mi NNW 13.8 mph - N/A Snow Light Snow
5:32 PM 19.4 °F 6.6 °F 15.8 °F 86% 30.00 in 10.0 mi NNW 12.7 mph - N/A   Overcast
5:53 PM 19.4 °F 6.6 °F 15.8 °F 86% 30.00 in 10.0 mi NW 12.7 mph - N/A   Overcast
6:13 PM 19.4 °F 6.6 °F 15.8 °F 86% 30.01 in 10.0 mi NW 12.7 mph - N/A   Overcast
6:32 PM 19.4 °F 6.6 °F 15.8 °F 86% 30.01 in 10.0 mi NW 12.7 mph - N/A   Overcast
6:53 PM 19.4 °F 6.6 °F 15.8 °F 86% 30.00 in 10.0 mi NNW 12.7 mph - N/A   Overcast
7:13 PM 17.6 °F 5.0 °F 12.2 °F 79% 30.01 in 10.0 mi NW 11.5 mph - N/A   Scattered Clouds
7:32 PM 17.6 °F 5.0 °F 12.2 °F 79% 30.01 in 10.0 mi NW 11.5 mph - N/A   Scattered Clouds
7:53 PM 15.8 °F 4.2 °F 10.4 °F 79% 30.01 in 10.0 mi NW 9.2 mph - N/A   Clear
8:12 PM 12.2 °F 0.7 °F 8.6 °F 85% 30.01 in 10.0 mi NW 8.1 mph - N/A   Clear
8:32 PM 10.4 °F -2.4 °F 6.8 °F 85% 30.02 in 10.0 mi WNW 9.2 mph - N/A   Clear
8:53 PM 10.4 °F -0.4 °F 6.8 °F 85% 30.02 in 10.0 mi West 6.9 mph - N/A   Clear
9:12 PM 8.6 °F -2.6 °F 6.8 °F 92% 30.02 in 10.0 mi WNW 6.9 mph - N/A   Clear
9:32 PM 8.6 °F -3.7 °F 6.8 °F 92% 30.03 in 10.0 mi WNW 8.1 mph - N/A   Clear
9:53 PM 8.6 °F -4.7 °F 6.8 °F 92% 30.03 in 10.0 mi WNW 9.2 mph - N/A   Clear
10:12 PM 8.6 °F -3.7 °F 6.8 °F 92% 30.03 in 10.0 mi WNW 8.1 mph - N/A   Clear
10:33 PM 12.2 °F 0.7 °F 8.6 °F 85% 30.02 in 10.0 mi NW 8.1 mph - N/A   Scattered Clouds
10:52 PM 14.0 °F 8.2 °F 10.4 °F 86% 30.02 in 10.0 mi WNW 3.5 mph - N/A   Overcast
11:12 PM 15.8 °F 10.2 °F 12.2 °F 86% 30.01 in 10.0 mi West 3.5 mph - N/A   Overcast
11:33 PM 15.8 °F - 12.2 °F 86% 30.01 in 10.0 mi Calm Calm - N/A   Overcast
11:53 PM 17.6 °F 12.3 °F 12.2 °F 79% 30.00 in 10.0 mi WSW 3.5 mph - N/A   Overcast